Location: Huberhof
(49.2050°N, 7.4980°E)
Time: 05:08:21
(UTC+00:00)

Ariane Rocket - Pass Details

Date: 29 October 2020
Orbit: 759 x 771 km, 98.7° (Epoch: 25 November)

Event Time Altitude Azimuth Distance (km) Brightness Sun altitude
Exits shadow 19:33:53 35° 328° (NNW) 1,225 4.3 -33.0°
Drops below altitude 10° 19:36:54 10° 340° (NNW) 2,324 5.9 -33.5°
Sets 19:39:15 0° 344° (NNW) 3,254 6.7 -33.9°
